KJ4TDM Weather Reports


Display with metric or nautical units.
time (UTC)temp
F
wind
direction
speed
MPH
gust
MPH
rain 1hr
in
rain 24hr
in
rain mn
in
humidity
%
barometer
mb
20260504120115 45 279 0.0 0.0 0.00 0.00 0.00 95 1018.4
20260504090116 44 279 0.0 0.0 0.00 0.00 0.00 93 1017.7
20260504081607 45 279 0.0 0.0 0.00 0.00 0.00 92 1017.6
20260504070112 46 278 0.0 0.0 0.00 0.00 0.00 92 1017.9
20260504060111 47 278 0.0 0.0 0.00 0.00 0.00 92 1018.4
20260504050021 48 278 0.0 0.0 0.00 0.00 0.00 89 1019.0
20260504044613 49 278 0.0 0.0 0.00 0.00 0.00 89 1018.9
20260504043056 49 278 0.0 0.0 0.00 0.00 0.00 88 1018.9
20260504041537 50 278 0.0 0.0 0.00 0.00 0.00 88 1019.0
20260504040117 50 278 0.0 0.0 0.00 0.00 0.00 88 1019.0
20260504034611 51 278 0.0 0.0 0.00 0.00 0.00 86 1019.1
20260504033031 51 278 0.0 0.0 0.00 0.00 0.00 85 1019.2
20260504031610 52 278 0.0 0.0 0.00 0.00 0.00 82 1019.4
20260504030108 53 278 0.0 0.0 0.00 0.00 0.00 81 1019.2
20260504024504 53 278 0.0 0.0 0.00 0.00 0.00 79 1019.2
20260504023103 54 278 0.0 0.0 0.00 0.00 0.00 77 1018.9
20260504021549 54 278 0.0 0.0 0.00 0.00 0.00 75 1018.8
20260504020114 55 278 0.0 0.0 0.00 0.00 0.00 73 1018.6
20260504014603 56 278 0.0 0.0 0.00 0.00 0.00 70 1018.5
20260504013013 57 278 0.0 0.0 0.00 0.00 0.00 70 1018.3
20260504011605 58 278 0.0 0.0 0.00 0.00 0.00 65 1018.2
20260504010049 60 278 0.0 0.0 0.00 0.00 0.00 65 1018.2
20260504004531 61 278 0.0 0.0 0.00 0.00 0.00 61 1018.1
20260504003105 63 278 0.0 0.0 0.00 0.00 0.00 58 1017.9
20260504001558 66 278 0.0 0.0 0.00 0.00 0.00 53 1017.9
20260504000114 70 278 0.0 0.0 0.00 0.00 0.00 46 1017.9
20260503234550 73 278 0.0 0.0 0.00 0.00 0.00 40 1017.9
20260503233035 73 277 0.0 0.0 0.00 0.00 0.00 38 1017.9
20260503231604 73 277 0.0 0.0 0.00 0.00 0.00 39 1017.9
20260503230045 73 277 0.0 0.0 0.00 0.00 0.00 37 1017.9
20260503224502 73 292 0.0 0.0 0.00 0.00 0.00 38 1017.9
20260503223054 73 344 0.0 1.0 0.00 0.00 0.00 37 1018.2
20260503221509 73 284 0.0 1.0 0.00 0.00 0.00 32 1018.3
20260503220104 73 288 0.0 1.0 0.00 0.00 0.00 36 1018.4
20260503214549 73 261 0.0 8.0 0.00 0.00 0.00 34 1018.5
20260503213116 73 286 0.0 1.0 0.00 0.00 0.00 33 1018.6
20260503211600 72 15 0.0 0.0 0.00 0.00 0.00 32 1018.7
20260503210016 73 284 0.0 7.0 0.00 0.00 0.00 31 1019.0
20260503204606 73 311 0.0 2.0 0.00 0.00 0.00 35 1019.2
20260503203048 72 261 0.0 2.0 0.00 0.00 0.00 36 1019.4
20260503201616 71 265 0.0 4.0 0.00 0.00 0.00 36 1019.7
20260503200056 72 319 0.0 1.0 0.00 0.00 0.00 37 1020.1
20260503194544 72 234 0.0 2.0 0.00 0.00 0.00 35 1020.4
20260503193113 71 281 0.0 11.0 0.00 0.00 0.00 36 1020.8
20260503191555 71 311 0.0 3.0 0.00 0.00 0.00 35 1021.0
20260503190058 71 296 0.0 3.0 0.00 0.00 0.00 40 1021.2
20260503184603 70 320 0.0 13.0 0.00 0.00 0.00 41 1021.5
20260503183055 70 311 0.0 2.0 0.00 0.00 0.00 40 1021.7
20260503181617 68 335 0.0 10.0 0.00 0.00 0.00 38 1021.8
20260503180058 69 306 0.0 13.0 0.00 0.00 0.00 42 1022.0
20260503174507 68 279 0.0 2.0 0.00 0.00 0.00 43 1022.0
20260503173116 68 298 0.0 2.0 0.00 0.00 0.00 37 1022.3
20260503171551 68 9 0.0 5.0 0.00 0.00 0.00 42 1022.5
20260503170116 66 315 0.0 9.0 0.00 0.00 0.00 41 1022.7